Regional Weather Roundup
Issued by NWS Cleveland, OH

Home | Current Version | Previous Version | Text Only | Print | Product List | Glossary Off
Versions: 1 2 3 4 5 6 7 8 9 10 11 12 13 14 15 16 17 18 19 20 21 22 23 24 25 26 27 28 29 30 31 32 33 34 35 36 37 38 39 40 41 42 43 44 45 46 47 48 49 50

208
ASUS41 KCLE 250712
RWRCLE
OHIO REGIONAL WEATHER ROUNDUP
NATIONAL WEATHER SERVICE WILMINGTON, OH
300 AM EDT WED APR 25 2018

NOTE: "FAIR" INDICATES FEW OR NO CLOUDS BELOW 12,000 FEET WITH NO
SIGNIFICANT WEATHER AND/OR OBSTRUCTIONS TO VISIBILITY.

OHZ001>008-015>018-024>027-034-035-043-044-250800-
   NORTHWEST OHIO

CITY           SKY/WX    TMP DP  RH WIND       PRES   REMARKS
DEFIANCE       CLOUDY    51  49  92 N6        29.92F FOG
FINDLAY        LGT RAIN  51  47  86 N7        29.89F FOG
TOLEDO EXPRESS CLOUDY    50  50 100 N5        29.90F FOG
TOLEDO EXEC    CLOUDY    48  46  93 N6        29.91F FOG
LIMA           FOG       49  49 100 N7        29.89F VSB 1/4
$$

OHZ009>014-019>023-028>033-038-089-250800-
   NORTHEAST OHIO

CITY           SKY/WX    TMP DP  RH WIND       PRES   REMARKS
CLE-HOPKINS    LGT RAIN  53  51  93 CALM      29.91F
CLE-LAKEFRONT  LGT RAIN  45  44  97 NE7       29.88F
CUY CO. ARPT   NOT AVBL
LORAIN-ELYRIA  CLOUDY    51  47  86 NE7       29.89F FOG
ASHTABULA      CLOUDY    50  49  96 CALM      29.91F
AKRON-CANTON   CLOUDY    51  48  89 NE3       29.88F
WOOSTER        CLOUDY    50  50 100 CALM      29.88F FOG
MANSFIELD      CLOUDY    51  51 100 CALM      29.87F
YOUNGSTOWN     CLOUDY    50  49  96 E6        29.88F
$$

OHZ042-051>053-060>062-070>072-077>081-250800-
  SOUTHWEST OHIO

CITY           SKY/WX    TMP DP  RH WIND       PRES   REMARKS
CINC-COVINGTON CLOUDY    53  51  93 NW10      29.89F
CINC-LUNKEN    CLOUDY    54  53  97 NW6       29.90F
HAMILTON       CLOUDY    54  51  90 NW6       29.90F
DAYTON         FOG       51  51 100 NW8       29.90F VSB 1/2
WRIGHT-PAT AFB CLOUDY    53  51  95 NW7       29.88F FOG
DAYTON GENERAL LGT RAIN  53  51  93 NW9       29.88F FOG
WILMINGTON     FOG       55  54  96 NW6       29.87F VSB 1/4
$$

OHZ036-037-039>041-045>050-054>059-063>069-073>076-082>088-250800-
  CENTRAL AND SOUTHEAST OHIO

CITY           SKY/WX    TMP DP  RH WIND       PRES   REMARKS
COLUMBUS       CLOUDY    53  52  96 CALM      29.87F
OSU AIRPORT    CLOUDY    53  52  96 N3        29.87F FOG
BOLTON FIELD   CLOUDY    52  52 100 CALM      29.87F FOG
RICKENBACK AFB CLOUDY    52  52 100 NE3       29.86F FOG
NEWARK         CLOUDY    53  51  93 CALM      29.86F
MARION         CLOUDY    52  50  93 N3        29.89F FOG
LANCASTER      CLOUDY    52  51  97 N5        29.87F
ZANESVILLE     CLOUDY    52  50  93 N3        29.86F
NEW PHILLY     CLOUDY    51  49  92 CALM      29.87F
$$




USA.gov is the U.S. government's official web portal to all federal, state and local government web resources and services.